Tracking 20241 objects as of 28-Jan-2020
HD Live streaming from Space Station
objects crossing your sky now

SL-8 DEB

Track SL-8 DEB now!
10-day predictions


NORAD ID: 16867
Int'l Code: 1986-052E
Perigee: 640.1 km
Apogee: 663.6 km
Inclination: 74.0 °
Period: 97.6 minutes
Semi major axis: 7022 km
RCS: 0.0117 m2 (small)
Launch date: July 16, 1986
Source: Commonwealth of Independent States (former USSR) (CIS)
Launch site: PLESETSK MISSILE AND SPACE COMPLEX (PKMTR)

Note: This is SATELLITE DEBRIS
aabbcc
Your satellite tracking list
Your tracking list is empty




NASA's NSSDC Master Catalog

Two Line Element Set (TLE):
1 16867U 86052E   20028.82849985  .00000332  00000-0  54174-4 0  9997
2 16867  74.0221 173.7155 0016708 301.3887  58.5651 14.75143147782809
Source of the keplerian elements: AFSPC